sat.trackr.live / text

‹ back to catalog

NAOS

NORAD 65317 · 2025-188C

PAYLOAD ACTIVE UNKNOWN

§ Identity

Operator
Country
LUXE
Launch date
2025-08-26
Launch site
AFWTR
Launch vehicle
Mass (kg)
RCS (m²)

External: N2YO · Heavens-Above · Gunter

§ Orbital elements

Epoch: 2026-09-20T22:20:41.227872Z

Period
93.60 min
Inclination
97.1956°
Eccentricity
0.0001419
Mean motion
15.38480662 rev/d
Perigee alt
449.6 km
Apogee alt
451.6 km
Semi-major
6,828.7 km
B*
1.3301e-4
RAAN
337.5164°
Arg perigee
108.6706°
Mean anomaly
251.4694°
Rev number
5,998

§ Raw data

NAOS1 65317U 25188C   26263.93103273  .00004969  00000+0  13301-3 0  99912 65317  97.1956 337.5164 0001419 108.6706 251.4694 15.38480662 59988

JSON: /api/v1/satellites/65317 · /tle

For live sub-satellite position, see the globe view (requires WebGL).

§ Visibility from observer

Set your observer location to see the next 7 days of passes ≥ 10°. The values pass through the URL so the page stays shareable.

No JS? Fill the form by hand. The geolocation button needs JavaScript.